Location: Brodie Road Observatory
(45.4241°N, 74.5431°W)
Time: 11:56:08
(UTC-04:00)

Daily predictions for brighter satellites

Satellite Brightness Start Highest point End
(mag) Time Altitude Azimuth Time Altitude Azimuth Time Altitude Azimuth
SL-16 R/B 3.3 21:17:54 10° NW 21:23:15 44° WSW 21:28:34 10° S
Cosmos 371 Rocket 3.9 21:18:51 10° N 21:23:29 45° ENE 21:28:06 10° SE
Cosmos 2228 Rocket 4.2 21:20:56 10° N 21:25:04 32° ENE 21:29:08 10° SE
Cosmos 1459 Rocket 4.1 21:20:06 10° N 21:26:26 82° E 21:32:37 10° S
Cosmos 1908 3.4 21:22:55 10° NNW 21:26:49 77° W 21:30:39 10° S
Resurs 01 Rocket 4.1 21:24:00 10° SW 21:27:20 21° W 21:30:43 10° NW
Cosmos 1939 Rocket 3.9 21:25:28 10° S 21:29:22 47° W 21:33:21 10° NNW
KORONAS-FOTON 3.7 21:31:57 10° S 21:35:42 71° E 21:39:29 10° NNE
CZ-3B R/B 4.3 21:33:52 10° SSW 21:37:01 55° SE 21:47:46 10° NE
Cosmos 2100 Rocket 4.2 21:31:41 10° N 21:38:00 78° W 21:44:22 10° S
ERBS 2.3 21:38:35 10° NW 21:41:59 76° SW 21:45:11 11° SE
H-2A R/B 2.8 21:37:06 10° SE 21:42:05 41° ENE 21:47:10 10° N
Cosmos 1076 Rocket 3.9 21:39:35 10° SSW 21:43:56 68° W 21:48:17 10° N
Cosmos 2173 Rocket 4.2 21:38:24 10° NNW 21:44:34 76° W 21:50:48 10° S
Lacrosse 5 2.3 21:42:06 10° WNW 21:47:04 55° SW 21:51:53 10° SSE
Cosmos 2123 Rocket 4.1 21:43:35 10° S 21:49:36 58° E 21:55:41 10° NNE
Meteor 2-10 4.4 21:44:09 10° N 21:49:44 63° ENE 21:55:25 10° SSE
SPOT 5 3.1 21:45:12 10° SSE 21:50:03 63° ENE 21:55:12 10° N
Cosmos 2061 Rocket 4.3 21:44:57 10° NNW 21:51:20 74° W 21:57:44 10° S
SL-08 RB Rocket 4.0 21:47:45 10° SSE 21:52:14 57° ENE 21:56:47 10° N
NOAA 11 4.3 21:48:31 10° S 21:53:56 79° WSW 21:59:24 10° NNW
Abrixas rocket 2.6 21:51:38 10° WNW 21:54:47 47° SSW 21:57:18 14° SE
Cosmos 2151 4.0 21:51:17 11° SSE 21:54:49 30° E 21:58:35 10° NNE
Cosmos 1408 Rocket 3.7 21:52:13 10° SSW 21:56:31 79° W 22:00:53 10° N
YAOGAN 6 4.3 21:54:24 10° SSW 21:57:39 30° W 22:00:59 10° NNW
Cosmos 2221 4.5 21:54:19 10° NNW 21:58:06 28° W 22:01:51 10° SSW
MetOp-B 4.2 21:53:56 10° SSE 21:59:18 81° WSW 22:04:42 10° NNW
BREEZE-M DEB (TANK) 2.9 21:59:02 10° W 22:01:10 49° N 22:06:16 10° ENE
Cosmos 2227 4.5 21:57:41 10° SSW 22:03:25 76° WNW 22:09:09 10° NNE
Cosmos 1626 3.4 22:03:26 15° SE 22:05:38 25° E 22:08:45 10° NNE
Cosmos 1703 4.5 22:03:52 15° SE 22:06:21 26° E 22:09:43 10° NNE
Cosmos 1814 Rocket 4.2 22:01:14 10° NNW 22:06:36 76° WSW 22:11:33 12° SSE
Cosmos 1726 2.5 22:03:21 10° NNW 22:07:00 61° W 22:10:36 10° S
Cosmos 1356 4.2 22:05:04 15° SSE 22:07:34 35° E 22:10:48 10° NNE
Cosmos 1725 Rocket 4.0 22:03:39 10° N 22:09:57 88° E 22:16:09 10° S
Cosmos 1763 Rocket 3.5 22:06:59 10° NNW 22:12:07 85° WSW 22:16:28 14° SSE
Cosmos 841 Rocket 3.5 22:07:03 10° NNW 22:12:19 77° ENE 22:16:35 16° SSE
Cosmos 332 Rocket 4.5 22:10:14 10° NNW 22:14:59 51° WSW 22:19:40 10° S
Terra 2.6 22:11:39 15° SE 22:15:09 38° ENE 22:19:33 10° N
Tiangong 1 1.6 22:14:51 10° W 22:17:25 33° SSW 22:18:28 24° SSE
Cosmos 1500 Rocket 3.6 22:13:36 11° S 22:17:52 63° E 22:22:16 10° NNE
Cosmos 2263 Rocket 2.3 22:13:14 10° S 22:18:37 54° ESE 22:24:04 10° NE
Cosmos 1486 Rocket 4.0 22:13:40 10° SSW 22:18:55 75° ESE 22:24:14 10° NNE
ATLAS 5 CENTAUR R/B 4.1 22:15:01 10° W 22:19:15 29° NW 22:23:51 10° NNE
Cosmos 304 Rocket 4.2 22:15:22 10° NNW 22:20:03 50° ENE 22:23:24 18° SE
Cosmos 1300 3.3 22:19:02 10° NNW 22:22:47 53° W 22:26:18 11° S
Abrixas 2.5 22:20:18 10° SW 22:22:53 43° SSE 22:25:29 10° ENE
Meteor 1-27 4.3 22:20:40 10° N 22:26:31 78° E 22:31:05 17° SSE
DMSP B5D2-2 4.3 22:22:16 10° NNE 22:27:23 52° E 22:31:32 15° S
IGS 5A 4.0 22:26:24 20° SE 22:28:59 45° ENE 22:32:58 10° N
CARTOSAT-1 4.0 22:26:14 20° SE 22:29:01 49° ENE 22:33:12 10° N
CZ-3A R/B 1.5 22:30:44 10° N 22:31:19 14° NNE 22:31:19 14° NNE
USA 234 3.3 22:26:30 10° ENE 22:32:55 54° SE 22:39:17 10° SSW
Cosmos 1151 Rocket 3.1 22:31:57 10° N 22:36:21 79° W 22:39:31 18° S
SPOT 1/Viking Rocket 3.8 22:33:04 15° S 22:37:21 68° WSW 22:42:31 10° NNW
Cosmos 1805 Rocket 4.5 22:35:31 22° SE 22:37:26 31° E 22:41:17 10° NNE
SL-14 R/B 4.4 22:37:19 10° SSW 22:41:06 43° WNW 22:44:51 10° N
Cosmos 1515 Rocket 4.3 22:40:21 10° NNW 22:44:33 49° W 22:47:59 14° SSW
CZ-4C R/B 3.0 22:46:15 23° SSE 22:48:12 29° ESE 22:53:06 10° NE
H-2A R/B 2.2 22:47:34 26° SE 22:49:52 62° ENE 22:54:02 10° N
Cosmos 1844 Rocket 3.9 22:50:05 20° SE 22:51:38 23° E 22:55:52 10° NE
ARGOS 4.4 22:46:54 10° SSW 22:51:51 36° W 22:56:50 10° NNW
Spot 4 4.4 22:49:54 23° SE 22:52:37 46° ENE 22:57:16 10° N
Cosmos 2058 3.1 22:50:47 16° SSW 22:54:09 71° W 22:58:23 10° N
Cosmos 1455 2.1 22:51:44 10° N 22:55:37 80° E 22:57:20 31° SSE
Cosmos 2233 Rocket 4.3 22:53:10 10° NNW 22:59:18 64° W 23:04:08 17° S
Cosmos 1943 4.2 22:58:39 10° NW 23:03:49 38° WSW 23:07:41 17° SSW
Cosmos 1503 Rocket 4.0 23:00:28 11° SSW 23:05:26 84° WNW 23:10:39 10° NNE
Cosmos 540 Rocket 3.5 23:00:31 10° NNW 23:05:41 77° WSW 23:08:29 27° S
CZ-4B R/B 3.9 23:02:16 10° NNE 23:07:22 47° E 23:09:44 28° SSE
NOSS 3 (A) 4.4 23:12:06 42° SSW 23:12:57 86° SE 23:16:15 10° NE
SME Rocket 3.5 23:11:22 31° SE 23:13:06 55° ENE 23:18:03 10° N
Cosmos 968 Rocket 4.0 23:12:33 29° SSE 23:14:30 41° ESE 23:19:26 10° NE
CZ-2C R/B 3.9 23:16:41 10° NE 23:20:50 23° E 23:22:08 21° ESE
H-2A R/B 3.6 23:17:23 12° SSW 23:21:34 30° W 23:26:21 10° NNW
Cosmos 2242 Rocket 4.3 23:17:54 10° N 23:22:18 43° ENE 23:23:57 31° SE
Meteor 2-10 Rocket 4.5 23:19:00 10° N 23:24:03 39° ENE 23:26:39 25° ESE
Cosmos 1869 3.2 23:20:25 10° N 23:24:22 86° E 23:25:35 43° SSE
Cosmos 1933 4.4 23:24:44 10° N 23:28:28 33° ENE 23:29:33 28° ESE
Sich 1 2.9 23:28:52 39° S 23:30:22 76° E 23:34:40 10° NNE
Cosmos 1513 Rocket 4.4 23:30:47 10° N 23:37:00 84° W 23:40:12 30° S
Cosmos 1315 Rocket 4.3 23:38:01 21° E 23:38:11 22° E 23:41:14 10° NE
Cosmos 1400 Rocket 3.4 23:38:32 39° ESE 23:39:13 43° E 23:43:10 10° NNE
Cosmos 292 Rocket 3.8 23:36:04 10° NNW 23:40:51 69° ENE 23:42:36 38° SE
Cosmos 1626 4.3 23:38:04 10° SW 23:40:57 22° WNW 23:43:57 10° NNW
CZ-4C R/B 3.5 23:40:17 42° S 23:41:42 81° WSW 23:46:10 10° NNW
Cosmos 1707 Rocket 4.1 23:42:15 10° NNW 23:46:36 51° W 23:48:18 32° SSW
deb Chang Zheng 4 4.2 23:42:30 10° N 23:46:46 52° WNW 23:49:17 23° SW
Cosmos 2278 Rocket 3.2 23:51:08 27° ESE 23:52:09 28° ESE 23:56:54 10° NE
Terra 3.4 23:50:32 17° SW 23:53:00 26° W 23:56:58 10° NW
ALOS 2 3.3 23:52:39 33° ESE 23:54:00 43° ENE 23:58:10 10° N
